[[{"header":{"parameterUnit":"m.s-1","parameterCategory":1,"la1":30.2991,"la2":30.254,"lo1":-89.0895,"lo2":-89.0444,"dy":0.0017,"dx":0.0017,"nx":28,"ny":28,"refTime":"2023-10-26T09:00:00:Z","depth":0,"parameterNumber":2,"parameterNumberName":"U-component_of_WINDS"},"data":[0,0,0,0,0,0,0,0,0,0,0,0,0,0,0,0,0,0,0,0,0,0,0,0,0,0,0,0,0,0,0,0,0,0,0,0,0,0,0,0,0,0,0,0,0,0,0,0,0,0,0,0,0,0,0,0,0,0,-4.4982,-4.4982,0,-4.4955,-4.4955,-4.4954,-4.477,-4.4765,-4.4761,-4.4757,-4.473,-4.4733,-4.4737,0,0,0,0,0,0,0,0,0,0,0,0,0,-4.4877,-4.488,-4.4982,-4.4982,-4.4982,-4.4955,-4.4955,-4.4954,-4.4771,-4.4765,-4.476,-4.4755,-4.4729,-4.4733,-4.4737,0,0,0,0,0,0,0,0,0,0,0,0,0,-4.4894,-4.488,-4.4982,-4.4887,-4.4878,-4.4955,-4.4955,-4.4954,-4.4772,-4.4765,-4.4758,-4.4752,-4.4728,-4.4733,-4.4738,-4.4905,0,0,-4.4754,-4.4756,0,0,0,0,0,0,0,0,-4.4893,-4.4898,-4.4901,-4.4894,-4.4884,-4.4859,-4.4907,-4.4938,-4.4774,-4.4812,-4.4757,-4.4749,-4.4779,-4.4779,-4.4789,-4.4904,-4.4903,-4.4754,-4.4757,-4.476,-4.4761,0,0,0,0,0,0,0,-4.4892,-4.4898,-4.4971,-4.4901,-4.4891,-4.4846,-4.4841,-4.4912,-4.4834,-4.4808,-4.4795,-4.4794,-4.4772,-4.4784,-4.4787,-4.4902,-4.4754,-4.4759,-4.4762,-4.4764,-4.5153,-4.516,0,0,0,0,0,0,-4.4904,-4.4898,-4.4972,-4.4971,-4.4872,-4.4853,-4.4847,-4.4874,-4.4832,-4.4819,-4.48,-4.4786,-4.4779,-4.4781,-4.4785,-4.4978,-4.476,-4.4765,-4.4768,-4.5146,-4.5155,-4.5163,0,0,0,0,0,0,-4.4902,-4.4912,-4.4973,-4.4931,-4.4935,-4.4862,-4.4893,-4.4877,-4.4888,-4.4826,-4.4811,-4.4826,-4.4773,-4.4778,-4.4877,-4.4974,-4.4767,-4.4772,-4.5138,-4.5149,-4.5159,-4.5365,0,0,0,0,0,0,-4.49,-4.4913,-4.4975,-4.4933,-4.4938,-4.5066,-4.4899,-4.4881,-4.4898,-4.4879,-4.4847,-4.4835,-4.4768,-4.487,-4.4882,-4.4978,-4.4776,-4.5129,-4.5143,-4.5156,-4.5349,-4.5382,-4.5409,0,0,0,0,0,-4.4897,-4.5035,-4.4979,-4.4989,-4.5015,-4.5071,-4.5074,-4.4994,-4.4906,-4.4969,-4.4929,-4.4836,-4.4962,-4.4882,-4.4893,-4.4992,-4.5122,-4.5139,-4.5155,-4.5336,-4.5375,-4.5409,0,0,0,0,0,0,-4.509,-4.5027,-4.4965,-4.5093,-4.5089,-4.504,-4.5116,-4.5039,-4.5059,-4.5041,-4.4941,-4.4936,-4.505,-4.5031,-4.4942,-4.5152,-4.5026,-4.5046,-4.516,-4.5197,-4.5227,-4.5228,-4.478,0,0,0,0,0,-4.5147,-4.5198,-4.5141,-4.526,-4.5261,-4.519,-4.5211,-4.5151,-4.5142,-4.5139,-4.5106,-4.5102,-4.514,-4.5168,-4.52,-4.5346,-4.5336,-4.542,-4.5451,-4.5476,-4.5493,-4.5569,-4.5605,-4.5216,-4.5216,-4.5216,0,0,-4.5266,-4.5239,-4.5277,-4.5298,-4.5287,-4.5343,-4.5189,-4.5254,-4.5294,-4.5149,-4.524,-4.5217,-4.5205,-4.5329,-4.5381,-4.5316,-4.5599,-4.5496,-4.5517,-4.552,-4.5589,-4.5626,-4.5659,-4.5227,-4.5225,-4.5223,0,0,-4.5511,-4.5496,-4.5592,-4.5585,-4.5571,-4.5523,-4.5547,-4.551,-4.5489,-4.5578,-4.5471,-4.5518,-4.5586,-4.5582,-4.5589,-4.5835,-4.5751,-4.5849,-4.6005,-4.608,-4.6111,-4.6137,-4.6224,-4.6257,-4.5867,-4.5867,-4.5868,0,-4.5661,-4.5739,-4.5652,-4.5724,-4.5737,-4.5609,-4.5706,-4.5703,-4.5702,-4.5713,-4.5641,-4.5724,-4.5708,-4.5828,-4.5888,-4.5899,-4.5923,-4.5851,-4.6113,-4.6139,-4.6163,-4.6244,-4.6277,-4.5879,-4.5878,-4.5877,-4.5875,0,-4.5923,-4.598,-4.606,-4.6061,-4.6082,-4.6167,-4.6094,-4.6126,-4.6065,-4.6025,-4.6118,-4.6094,-4.6119,-4.6143,-4.6084,-4.6256,-4.6216,-4.6131,-4.6001,-4.6213,-4.6288,-4.6319,-4.5896,-4.5892,-4.5888,-4.5885,0,0,-4.6286,-4.6239,-4.627,-4.6269,-4.6245,-4.6287,-4.6367,-4.639,-4.642,-4.6424,-4.6488,-4.655,-4.647,-4.6479,-4.6418,-4.6484,-4.668,-4.639,-4.6388,-4.6444,-4.6867,-4.6931,-4.6968,-4.6624,-4.663,-4.6635,-4.6868,0,-4.652,-4.6652,-4.6577,-4.672,-4.6771,-4.6651,-4.672,-4.6714,-4.6679,-4.6718,-4.6679,-4.6724,-4.6617,-4.6621,-4.6682,-4.6643,-4.6763,-4.6626,-4.6683,-4.6686,-4.6687,-4.7008,-4.7074,-4.7296,-4.6897,-4.6902,-4.6905,0,-4.681,-4.6825,-4.6974,-4.694,-4.6959,-4.7023,-4.7039,-4.7077,-4.7068,-4.7038,-4.7049,-4.6972,-4.7048,-4.6923,-4.7026,-4.6935,-4.6954,-4.6939,-4.6946,-4.6946,-4.6807,-4.7016,-4.7364,-4.7397,-4.6951,-4.6947,-4.6944,0,-4.7058,-4.7117,-4.7212,-4.7216,-4.718,-4.7227,-4.7214,-4.7198,-4.7218,-4.7233,-4.7244,-4.7269,-4.7282,-4.7303,-4.7235,-4.715,-4.7347,-4.7216,-4.7324,-4.7326,-4.7369,-4.7367,-4.7725,-4.7386,-4.7385,-4.7385,-4.7384,0,-4.7326,-4.7421,-4.7323,-4.7383,-4.7486,-4.74,-4.7504,-4.7479,-4.7466,-4.7518,-4.7417,-4.7468,-4.7376,-4.7419,-4.7367,-4.746,-4.7467,-4.7445,-4.743,-4.7453,-4.7456,-4.7463,-4.7445,-4.7393,-4.7391,-4.739,-4.7388,0,-4.7619,-4.7558,-4.7655,-4.7613,-4.7605,-4.7683,-4.7647,-4.7701,-4.766,-4.7727,-4.7738,-4.7675,-4.772,-4.7655,-4.7693,-4.7657,-4.7786,-4.7748,-4.7789,-4.7777,-4.7889,-4.7879,-4.8262,-4.8307,-4.7941,-4.7945,-4.7948,0,-4.7793,-4.7863,-4.783,-4.7857,-4.785,-4.7896,-4.7916,-4.7835,-4.7859,-4.7855,-4.7909,-4.7945,-4.7969,-4.8047,-4.8004,-4.8033,-4.7994,-4.8126,-4.7997,-4.8019,-4.7994,-4.799,-4.7996,-4.8152,-4.8157,-4.816,-4.8163,0,-4.8107,-4.8074,-4.8105,-4.8128,-4.8154,-4.8168,-4.8174,-4.8203,-4.8117,-4.815,-4.8195,-4.8214,-4.8253,-4.829,-4.8308,-4.8295,-4.8216,-4.8205,-4.8231,-4.8254,-4.8274,-4.8264,-4.7859,-4.8195,-4.8192,-4.819,-4.8188,-4.8187,-4.8344,-4.8401,-4.8387,-4.8426,-4.8422,-4.8431,-4.8478,-4.8444,-4.848,-4.8505,-4.8455,-4.8512,-4.8502,-4.8518,-4.8515,-4.8558,-4.85,-4.8539,-4.8548,-4.8558,-4.8575,-4.827,-4.8562,-4.856,-4.856,-4.8559,-4.8558,0,-4.8652,-4.8637,-4.8674,-4.8686,-4.8718,-4.864,-4.8644,-4.8675,-4.8726,-4.8723,-4.875,-4.8802,-4.8838,-4.8799,-4.8828,-4.8871,-4.8835,-4.8881,-4.8876,-4.8874,-4.8626,-4.8599,-4.8909,-4.8909,-4.8909,-4.8909,-4.8909,-4.8909,-4.8815,-4.8907,-4.8873,-4.8963,-4.8947,-4.9001,-4.901,-4.9018,-4.9015,-4.9077,-4.9106,-4.9081,-4.9064,-4.9091,-4.9121,-4.9109,-4.9124,-4.9183,-4.9158,-4.8926,-4.8892,-4.8859,-4.8833,-4.9187,-4.9188,-4.9402,-4.9404,-4.9406]},{"header":{"parameterUnit":"m.s-1","parameterCategory":1,"la1":30.2991,"la2":30.254,"lo1":-89.0895,"lo2":-89.0444,"dy":0.0017,"dx":0.0017,"nx":28,"ny":28,"refTime":"2023-10-26T09:00:00:Z","depth":0,"parameterNumber":3,"parameterNumberName":"V-component_of_WINDS"},"data":[0,0,0,0,0,0,0,0,0,0,0,0,0,0,0,0,0,0,0,0,0,0,0,0,0,0,0,0,0,0,0,0,0,0,0,0,0,0,0,0,0,0,0,0,0,0,0,0,0,0,0,0,0,0,0,0,0,0,0.7556,0.7555,0,0.7524,0.7524,0.7523,0.7432,0.743,0.7428,0.7426,0.7396,0.7397,0.7398,0,0,0,0,0,0,0,0,0,0,0,0,0,0.7542,0.7543,0.7556,0.7555,0.7555,0.7524,0.7524,0.7523,0.7432,0.743,0.7427,0.7425,0.7396,0.7397,0.7398,0,0,0,0,0,0,0,0,0,0,0,0,0,0.7533,0.7543,0.7556,0.7506,0.7501,0.7524,0.7523,0.7523,0.7433,0.743,0.7427,0.7424,0.7395,0.7397,0.7398,0.7468,0,0,0.7403,0.7404,0,0,0,0,0,0,0,0,0.7534,0.7534,0.7514,0.7509,0.7504,0.7479,0.7508,0.7505,0.7434,0.7459,0.7426,0.7423,0.7426,0.7425,0.7426,0.7466,0.7465,0.7403,0.7404,0.7405,0.7405,0,0,0,0,0,0,0,0.7535,0.7535,0.7543,0.7514,0.7508,0.7487,0.7482,0.7507,0.746,0.7456,0.745,0.7447,0.7423,0.7424,0.7424,0.7465,0.7403,0.7405,0.7406,0.7406,0.7564,0.7567,0,0,0,0,0,0,0.7542,0.7536,0.7544,0.7542,0.7512,0.7489,0.7484,0.749,0.7459,0.7451,0.745,0.7443,0.7423,0.7422,0.7423,0.7504,0.7405,0.7406,0.7407,0.7561,0.7565,0.7569,0,0,0,0,0,0,0.7542,0.7544,0.7545,0.7537,0.7536,0.7493,0.75,0.7491,0.7492,0.7454,0.7445,0.7459,0.7421,0.7421,0.7458,0.7502,0.7407,0.7408,0.7557,0.7562,0.7567,0.7667,0,0,0,0,0,0,0.7542,0.7544,0.7569,0.7538,0.7537,0.758,0.7503,0.7492,0.7495,0.7486,0.7461,0.7454,0.7418,0.7456,0.7459,0.7502,0.741,0.7553,0.756,0.7565,0.7659,0.7675,0.7687,0,0,0,0,0,0.7542,0.7598,0.7571,0.7572,0.7567,0.7583,0.7582,0.7539,0.7499,0.7524,0.75,0.7455,0.7496,0.7461,0.7464,0.7508,0.755,0.7558,0.7565,0.7653,0.7672,0.7687,0,0,0,0,0,0,0.7635,0.7593,0.7562,0.761,0.7601,0.7567,0.7598,0.7559,0.7562,0.7553,0.7501,0.7496,0.7542,0.7528,0.7489,0.7575,0.7516,0.7524,0.7582,0.7599,0.7613,0.7616,0.7411,0,0,0,0,0,0.7661,0.7677,0.7639,0.7685,0.7682,0.7642,0.7647,0.7615,0.7603,0.7599,0.7577,0.7569,0.758,0.7589,0.7597,0.7657,0.7652,0.7689,0.7703,0.7715,0.7723,0.7757,0.7774,0.7593,0.7593,0.7592,0,0,0.7715,0.7694,0.7707,0.7704,0.7693,0.7712,0.7639,0.7661,0.7675,0.7602,0.7637,0.7621,0.7608,0.7658,0.7679,0.7649,0.7772,0.7724,0.7734,0.7736,0.7766,0.7783,0.7799,0.7598,0.7597,0.7596,0,0,0.7824,0.7808,0.7846,0.7837,0.7821,0.7794,0.7804,0.7777,0.7764,0.7797,0.7744,0.7761,0.7781,0.7775,0.7774,0.7884,0.7843,0.7888,0.7962,0.7995,0.801,0.8022,0.8063,0.8079,0.7896,0.7896,0.7897,0,0.7893,0.7918,0.7871,0.7897,0.7899,0.7834,0.7873,0.7867,0.7856,0.7859,0.7824,0.785,0.7837,0.7886,0.7913,0.7914,0.7925,0.7891,0.8011,0.8023,0.8034,0.8073,0.8089,0.7902,0.7901,0.7901,0.79,0,0.8006,0.8024,0.8057,0.8048,0.8052,0.8085,0.8045,0.8056,0.8024,0.8002,0.8038,0.802,0.8025,0.8034,0.8003,0.808,0.8062,0.802,0.796,0.8058,0.8094,0.8108,0.791,0.7908,0.7907,0.7905,0,0,0.817,0.8136,0.8149,0.8145,0.8125,0.8139,0.8171,0.8175,0.8187,0.8181,0.8208,0.8228,0.819,0.819,0.8158,0.8187,0.8279,0.8142,0.8141,0.817,0.8365,0.8398,0.8415,0.8251,0.8254,0.8256,0.8367,0,0.8275,0.8325,0.8285,0.8343,0.8362,0.8302,0.833,0.8321,0.8302,0.8315,0.8293,0.8309,0.8257,0.8257,0.8283,0.8262,0.8317,0.8253,0.8277,0.8279,0.8284,0.8434,0.8467,0.8573,0.838,0.8383,0.8384,0,0.8402,0.8404,0.8464,0.8442,0.8449,0.8474,0.8476,0.849,0.848,0.8464,0.8465,0.8427,0.8458,0.8399,0.8443,0.84,0.8408,0.8399,0.8402,0.8404,0.8338,0.8441,0.8605,0.8622,0.8405,0.8404,0.8402,0,0.8519,0.8536,0.8575,0.8574,0.8548,0.8568,0.8559,0.8546,0.8553,0.8555,0.8559,0.8566,0.857,0.8577,0.8542,0.8501,0.8591,0.8528,0.8581,0.8582,0.8603,0.8602,0.8772,0.8606,0.8605,0.8605,0.8605,0,0.864,0.868,0.8628,0.8652,0.8696,0.865,0.8696,0.868,0.867,0.8692,0.8641,0.8662,0.8614,0.8632,0.8604,0.8647,0.8648,0.8638,0.863,0.8643,0.8645,0.8648,0.8641,0.8609,0.8608,0.8607,0.8607,0,0.8778,0.8744,0.8784,0.8757,0.8752,0.8786,0.8764,0.8787,0.8764,0.8793,0.8797,0.8762,0.878,0.8746,0.8759,0.8741,0.8801,0.8782,0.8805,0.88,0.8855,0.8851,0.9034,0.9057,0.8874,0.8876,0.8877,0,0.8859,0.8888,0.8866,0.8876,0.887,0.8888,0.8894,0.8852,0.8861,0.8854,0.8878,0.8892,0.8901,0.8933,0.891,0.8921,0.8903,0.8966,0.8904,0.8917,0.8906,0.8905,0.8909,0.8979,0.8981,0.8983,0.8985,0,0.9005,0.8988,0.8998,0.9005,0.9014,0.9017,0.9016,0.9029,0.8983,0.8997,0.9015,0.9022,0.9037,0.9053,0.9058,0.905,0.9012,0.9005,0.9018,0.9032,0.9045,0.9041,0.8841,0.9001,0.8999,0.8998,0.8997,0.8996,0.9118,0.9143,0.9131,0.9146,0.9141,0.9143,0.9164,0.9144,0.9158,0.9167,0.9141,0.9166,0.9159,0.9162,0.9159,0.9179,0.9151,0.9169,0.9174,0.918,0.919,0.9041,0.918,0.9179,0.9179,0.9178,0.9178,0,0.9264,0.9254,0.9268,0.9269,0.9282,0.9244,0.9242,0.9255,0.9278,0.9274,0.9284,0.9307,0.9322,0.9301,0.9314,0.9334,0.9317,0.9339,0.9338,0.9337,0.9213,0.9202,0.9353,0.9353,0.9353,0.9353,0.9353,0.9353,0.9341,0.9382,0.9364,0.9402,0.9392,0.9416,0.9419,0.9421,0.9418,0.9445,0.9458,0.9444,0.9434,0.9446,0.9459,0.9453,0.9461,0.949,0.9478,0.9362,0.9345,0.9329,0.9318,0.9492,0.9492,0.96,0.9601,0.9602]}]]